H1 CPF 2 NER 2021 7 15 9 196 01 glonass121 H2 1000702 9121 36401 2021 7 15 0 0 0 2021 7 18 23 45 0 900 1 1 0 0 0 1 H9 10 0 59410 0.00000 0 -9043757.870 7700347.005 22538650.485 10 0 59410 900.00000 0 -9508610.054 4909666.296 23127276.653 10 0 59410 1800.00000 0 -10195694.606 2120060.895 23265467.239 10 0 59410 2700.00000 0 -11089940.303 -597815.415 22950885.722 10 0 59410 3600.00000 0 -12164132.779 -3177261.588 22190016.189 10 0 59410 4500.00000 0 -13380020.678 -5558063.239 20998008.862 10 0 59410 5400.00000 0 -14689900.760 -7688744.148 19398358.109 10 0 59410 6300.00000 0 -16038613.777 -9528443.838 17422421.084 10 0 59410 7200.00000 0 -17365865.967 -11048346.001 15108788.047 10 0 59410 8100.00000 0 -18608778.058 -12232601.783 12502517.914 10 0 59410 9000.00000 0 -19704554.836 -13078713.137 9654254.708 10 0 59410 9900.00000 0 -20593163.850 -13597363.761 6619242.593 10 0 59410 10800.00000 0 -21219912.081 -13811708.025 3456258.587 10 0 59410 11700.00000 0 -21537814.054 -13756150.275 226483.224 10 0 59410 12600.00000 0 -21509653.833 -13474667.572 -3007669.640 10 0 59410 13500.00000 0 -21109656.211 -13018747.260 -6183742.372 10 0 59410 14400.00000 0 -20324698.529 -12445026.158 -9240420.856 10 0 59410 15300.00000 0 -19155013.413 -11812729.889 -12118698.105 10 0 59410 16200.00000 0 -17614353.382 -11181018.765 -14762993.518 10 0 59410 17100.00000 0 -15729610.052 -10606350.117 -17122207.942 10 0 59410 18000.00000 0 -13539902.665 -10139966.174 -19150695.838 10 0 59410 18900.00000 0 -11095171.989 -9825611.452 -20809137.324 10 0 59410 19800.00000 0 -8454335.525 -9697574.360 -22065294.464 10 0 59410 20700.00000 0 -5683077.798 -9779134.783 -22894637.874 10 0 59410 21600.00000 0 -2851364.337 -10081483.096 -23280831.770 10 0 59410 22500.00000 0 -30779.408 -10603157.207 -23216067.640 10 0 59410 23400.00000 0 2708204.607 -11330023.230 -22701238.982 10 0 59410 24300.00000 0 5298915.011 -12235803.294 -21745952.087 10 0 59410 25200.00000 0 7681013.473 -13283131.408 -20368370.475 10 0 59410 26100.00000 0 9802772.617 -14425096.188 -18594893.497 10 0 59410 27000.00000 0 11622999.411 -15607208.514 -16459672.740 10 0 59410 27900.00000 0 13112524.043 -16769713.649 -14003973.036 10 0 59410 28800.00000 0 14255190.447 -17850151.908 -11275388.383 10 0 59410 29700.00000 0 15048305.198 -18786060.331 -8326926.357 10 0 59410 30600.00000 0 15502524.265 -19517700.695 -5215977.910 10 0 59410 31500.00000 0 15641180.988 -19990696.932 -2003192.605 10 0 59410 32400.00000 0 15499083.012 -20158467.998 1248718.077 10 0 59410 33300.00000 0 15120829.112 -19984350.293 4476224.511 10 0 59410 34200.00000 0 14558718.083 -19443316.706 7616243.293 10 0 59410 35100.00000 0 13870340.067 -18523216.630 10607395.028 10 0 59410 36000.00000 0 13115954.779 -17225482.105 13391228.305 10 0 59410 36900.00000 0 12355770.519 -15565268.621 15913383.328 10 0 59410 37800.00000 0 11647242.116 -13571023.870 18124670.322 10 0 59410 38700.00000 0 11042504.747 -11283502.688 19982040.046 10 0 59410 39600.00000 0 10586054.244 -8754270.550 21449426.457 10 0 59410 40500.00000 0 10312773.154 -6043759.831 22498444.928 10 0 59410 41400.00000 0 10246386.221 -3218961.914 23108932.946 10 0 59410 42300.00000 0 10398409.859 -350853.420 23269323.856 10 0 59410 43200.00000 0 10767638.489 2488334.744 22976848.086 10 0 59410 44100.00000 0 11340187.346 5227890.942 22237559.891 10 0 59410 45000.00000 0 12090087.577 7801323.402 21066191.250 10 0 59410 45900.00000 0 12980406.090 10148876.428 19485837.896 10 0 59410 46800.00000 0 13964840.815 12219759.249 17527485.518 10 0 59410 47700.00000 0 14989722.384 13973997.251 15229387.055 10 0 59410 48600.00000 0 15996336.833 15383831.606 12636304.491 10 0 59410 49500.00000 0 16923471.071 16434612.467 9798630.754 10 0 59410 50400.00000 0 17710074.232 17125151.940 6771409.275 10 0 59410 51300.00000 0 18297923.785 17467525.469 3613270.281 10 0 59410 52200.00000 0 18634185.615 17486332.862 385303.995 10 0 59410 53100.00000 0 18673762.093 17217452.081 -2850108.050 10 0 59410 54000.00000 0 18381331.206 16706339.516 -6030482.125 10 0 59410 54900.00000 0 17732992.697 16005948.592 -9094420.225 10 0 59410 55800.00000 0 16717453.368 15174353.798 -11982775.363 10 0 59410 56700.00000 0 15336702.466 14272178.882 -14639773.488 10 0 59410 57600.00000 0 13606148.751 13359935.679 -17014072.180 10 0 59410 58500.00000 0 11554212.609 12495383.422 -19059737.320 10 0 59410 59400.00000 0 9221388.469 11731017.537 -20737120.430 10 0 59410 60300.00000 0 6658814.077 11111791.657 -22013620.988 10 0 59410 61200.00000 0 3926403.239 10673167.316 -22864319.668 10 0 59410 62100.00000 0 1090616.270 10439572.719 -23272470.530 10 0 59410 63000.00000 0 -1778042.665 10423335.594 -23229842.256 10 0 59410 63900.00000 0 -4607700.427 10624136.158 -22736900.753 10 0 59410 64800.00000 0 -7327853.650 11029005.101 -21802827.996 10 0 59410 65700.00000 0 -9872059.471 11612869.222 -20445374.588 10 0 59410 66600.00000 0 -12180467.351 12339624.624 -18690546.428 10 0 59410 67500.00000 0 -14202086.715 13163695.116 -16572128.952 10 0 59410 68400.00000 0 -15896695.157 14032012.654 -14131055.592 10 0 59410 69300.00000 0 -17236306.002 14886338.110 -11414630.579 10 0 59410 70200.00000 0 -18206131.982 15665825.268 -8475619.494 10 0 59410 71100.00000 0 -18805002.702 16309719.558 -5371224.285 10 0 59410 72000.00000 0 -19045216.521 16760076.176 -2161962.645 10 0 59410 72900.00000 0 -18951831.965 16964380.426 1089525.715 10 0 59410 73800.00000 0 -18561428.083 16877956.522 4319721.186 10 0 59410 74700.00000 0 -17920386.497 16466059.674 7465488.294 10 0 59410 75600.00000 0 -17082769.161 15705559.725 10465334.521 10 0 59410 76500.00000 0 -16107883.599 14586142.230 13260636.637 10 0 59410 77400.00000 0 -15057641.302 13110974.043 15796807.944 10 0 59410 78300.00000 0 -13993823.830 11296803.899 18024381.459 10 0 59410 79200.00000 0 -12975374.945 9173493.211 19899986.229 10 0 59410 80100.00000 0 -12055835.469 6782997.212 21387196.677 10 0 59410 81000.00000 0 -11281030.735 4177840.215 22457238.231 10 0 59410 81900.00000 0 -10687108.810 1419150.312 23089535.951 10 0 59410 82800.00000 0 -10299011.909 -1425662.578 23272096.576 10 0 59410 83700.00000 0 -10129444.106 -4285486.912 23001718.219 10 0 59410 84600.00000 0 -10178376.798 -7088239.346 22284025.598 10 0 59410 85500.00000 0 -10433110.163 -9763629.956 21133332.259 10 0 59411 0.00000 0 -10868885.196 -12245848.155 19572334.658 10 0 59411 900.00000 0 -11450017.914 -14476058.679 17631645.764 10 0 59411 1800.00000 0 -12131505.201 -16404606.022 15349179.584 10 0 59411 2700.00000 0 -12861033.315 -17992837.293 12769399.084 10 0 59411 3600.00000 0 -13581302.796 -19214472.011 9942443.631 10 0 59411 4500.00000 0 -14232571.693 -20056463.818 6923153.156 10 0 59411 5400.00000 0 -14755310.176 -20519322.096 3770008.079 10 0 59411 6300.00000 0 -15092855.694 -20616882.819 544005.133 10 0 59411 7200.00000 0 -15193958.230 -20375540.712 -2692509.781 10 0 59411 8100.00000 0 -15015110.189 -19832976.621 -5877030.213 10 0 59411 9000.00000 0 -14522564.506 -19036434.363 -8948077.680 10 0 59411 9900.00000 0 -13693957.575 -18040619.348 -11846368.567 10 0 59411 10800.00000 0 -12519469.742 -16905306.411 -14515938.656 10 0 59411 11700.00000 0 -11002474.902 -15692755.789 -16905205.371 10 0 59411 12600.00000 0 -9159651.455 -14465043.784 -18967948.841 10 0 59411 13500.00000 0 -7020548.524 -13281417.975 -20664194.462 10 0 59411 14400.00000 0 -4626623.261 -12195785.871 -21960981.124 10 0 59411 15300.00000 0 -2029786.499 -11254440.591 -22833001.007 10 0 59411 16200.00000 0 709486.139 -10494117.777 -23263098.883 10 0 59411 17100.00000 0 3524402.760 -9940464.790 -23242620.903 10 0 59411 18000.00000 0 6344373.320 -9606986.801 -22771605.085 10 0 59411 18900.00000 0 9097695.844 -9494515.203 -21858808.265 10 0 59411 19800.00000 0 11714301.586 -9591222.540 -20521566.826 10 0 59411 20700.00000 0 14128446.415 -9873185.700 -18785491.463 10 0 59411 21600.00000 0 16281237.065 -10305476.214 -16683999.278 10 0 59411 22500.00000 0 18122886.555 -10843734.139 -14257689.711 10 0 59411 23400.00000 0 19614603.342 -11436161.075 -11553574.226 10 0 59411 24300.00000 0 20730033.416 -12025849.353 -8624173.041 10 0 59411 25200.00000 0 21456192.749 -12553349.171 -5526495.421 10 0 59411 26100.00000 0 21793848.848 -12959364.296 -2320923.306 10 0 59411 27000.00000 0 21757333.642 -13187460.394 929979.337 10 0 59411 27900.00000 0 21373794.537 -13186668.731 4162706.812 10 0 59411 28800.00000 0 20681914.977 -12913871.815 7314075.262 10 0 59411 29700.00000 0 19730159.271 -12335866.641 10322482.375 10 0 59411 30600.00000 0 18574617.362 -11431015.037 13129135.968 10 0 59411 31500.00000 0 17276542.898 -10190408.663 15679224.775 10 0 59411 32400.00000 0 15899691.232 -8618497.483 17923006.372 10 0 59411 33300.00000 0 14507572.533 -6733154.073 19816789.305 10 0 59411 34200.00000 0 13160738.380 -4565170.888 21323789.151 10 0 59411 35100.00000 0 11914218.120 -2157212.126 22414841.582 10 0 59411 36000.00000 0 10815214.028 437734.701 23068958.979 10 0 59411 36900.00000 0 9901152.358 3158341.146 23273720.822 10 0 59411 37800.00000 0 9198171.334 5937269.773 23025491.904 10 0 59411 38700.00000 0 8720107.759 8703757.122 22329466.086 10 0 59411 39600.00000 0 8468022.308 11386339.099 21199536.894 10 0 59411 40500.00000 0 8430280.402 13915605.198 19657999.614 10 0 59411 41400.00000 0 8583182.060 16226867.508 17735092.665 10 0 59411 42300.00000 0 8892111.266 18262634.729 15468388.899 10 0 59411 43200.00000 0 9313153.844 19974790.299 12902050.012 10 0 59411 44100.00000 0 9795113.808 21326386.565 10085959.438 10 0 59411 45000.00000 0 10281842.069 22292983.119 7074751.151 10 0 59411 45900.00000 0 10714779.003 22863476.582 3926753.240 10 0 59411 46800.00000 0 11035604.087 23040390.137 702866.396 10 0 59411 47700.00000 0 11188881.960 22839613.229 -2534601.630 10 0 59411 48600.00000 0 11124594.812 22289604.311 -5723124.101 10 0 59411 49500.00000 0 10800456.040 21430091.213 -8801144.331 10 0 59411 50400.00000 0 10183909.336 20310323.959 -11709244.152 10 0 59411 51300.00000 0 9253730.316 18986952.783 -14391271.026 10 0 59411 52200.00000 0 8001163.988 17521619.051 -16795403.826 10 0 59411 53100.00000 0 6430550.254 15978358.259 -18875138.325 10 0 59411 54000.00000 0 4559410.190 14420921.730 -20590175.002 10 0 59411 54900.00000 0 2417987.610 12910126.877 -21907193.212 10 0 59411 55800.00000 0 48262.404 11501344.912 -22800497.564 10 0 59411 56700.00000 0 -2497526.490 10242229.446 -23252524.318 10 0 59411 57600.00000 0 -5158790.681 9170779.986 -23254197.677 10 0 59411 58500.00000 0 -7868858.658 8313821.126 -22805128.111 10 0 59411 59400.00000 0 -10557508.072 7685961.608 -21913647.324 10 0 59411 60300.00000 0 -13153661.601 7289078.100 -20596677.105 10 0 59411 61200.00000 0 -15588136.211 7112347.202 -18879432.145 10 0 59411 62100.00000 0 -17796332.482 7132826.455 -16794960.003 10 0 59411 63000.00000 0 -19720751.986 7316562.122 -14383524.518 10 0 59411 63900.00000 0 -21313236.628 7620179.017 -11691842.475 10 0 59411 64800.00000 0 -22536834.667 7992886.635 -8772186.554 10 0 59411 65700.00000 0 -23367213.038 8378817.374 -5681370.980 10 0 59411 66600.00000 0 -23793554.261 8719597.561 -2479639.449 10 0 59411 67500.00000 0 -23818898.092 8957041.010 770522.416 10 0 59411 68400.00000 0 -23459911.808 9035848.755 4005625.514 10 0 59411 69300.00000 0 -22746097.907 8906197.606 7162440.347 10 0 59411 70200.00000 0 -21718472.630 8526104.576 10179257.592 10 0 59411 71100.00000 0 -20427772.039 7863463.671 12997118.888 10 0 59411 72000.00000 0 -18932263.098 6897665.898 15560991.118 10 0 59411 72900.00000 0 -17295254.504 5620731.574 17820859.000 10 0 59411 73800.00000 0 -15582414.852 4037905.486 19732712.948 10 0 59411 74700.00000 0 -13859013.729 2167689.143 21259411.770 10 0 59411 75600.00000 0 -12187204.040 41308.802 22371403.116 10 0 59411 76500.00000 0 -10623461.276 -2298357.599 23047288.034 10 0 59411 77400.00000 0 -9216287.861 -4798348.295 23274219.684 10 0 59411 78300.00000 0 -8004278.472 -7397613.249 23048130.068 10 0 59411 79200.00000 0 -7014625.937 -10029352.604 22373782.323 10 0 59411 80100.00000 0 -6262128.085 -12623599.268 21264649.678 10 0 59411 81000.00000 0 -5748734.116 -15109937.366 19742625.634 10 0 59411 81900.00000 0 -5463646.122 -17420243.405 17837572.941 10 0 59411 82800.00000 0 -5383968.071 -19491336.680 15586721.933 10 0 59411 83700.00000 0 -5475871.767 -21267430.056 13033931.279 10 0 59411 84600.00000 0 -5696228.097 -22702281.152 10228826.424 10 0 59411 85500.00000 0 -5994632.971 -23760956.701 7225833.066 10 0 59412 0.00000 0 -6315741.538 -24421139.366 4083124.502 10 0 59412 900.00000 0 -6601811.846 -24673924.981 861502.542 10 0 59412 1800.00000 0 -6795351.811 -24524080.126 -2376765.986 10 0 59412 2700.00000 0 -6841757.894 -23989750.068 -5569137.008 10 0 59412 3600.00000 0 -6691836.926 -23101632.125 -8653978.668 10 0 59412 4500.00000 0 -6304105.564 -21901648.636 -11571741.328 10 0 59412 5400.00000 0 -5646772.370 -20441175.408 -14266087.211 10 0 59412 6300.00000 0 -4699319.986 -18778898.639 -16684959.639 10 0 59412 7200.00000 0 -3453621.342 -16978388.407 -18781572.875 10 0 59412 8100.00000 0 -1914542.571 -15105488.097 -20515305.058 10 0 59412 9000.00000 0 -100005.949 -13225626.476 -21852478.246 10 0 59412 9900.00000 0 1959491.936 -11401162.459 -22767011.285 10 0 59412 10800.00000 0 4221889.720 -9688871.343 -23240933.255 10 0 59412 11700.00000 0 6635059.920 -8137675.916 -23264747.258 10 0 59412 12600.00000 0 9138737.984 -6786716.372 -22837636.573 10 0 59412 13500.00000 0 11666805.094 -5663839.502 -21967507.665 10 0 59412 14400.00000 0 14149832.993 -4784570.981 -20670867.166 10 0 59412 15300.00000 0 16517787.310 -4151615.085 -18972532.754 10 0 59412 16200.00000 0 18702778.401 -3754904.540 -16905180.969 10 0 59412 17100.00000 0 20641745.540 -3572200.357 -14508738.105 10 0 59412 18000.00000 0 22278961.778 -3570218.309 -11829623.810 10 0 59412 18900.00000 0 23568253.278 -3706236.019 -8919860.286 10 0 59412 19800.00000 0 24474838.027 -3930113.620 -5836063.324 10 0 59412 20700.00000 0 24976704.153 -4186642.541 -2638334.620 10 0 59412 21600.00000 0 25065467.393 -4418122.021 610922.521 10 0 59412 22500.00000 0 24746669.382 -4567052.288 3848239.653 10 0 59412 23400.00000 0 24039502.588 -4578827.660 7010345.599 10 0 59412 24300.00000 0 22975972.745 -4404312.223 10035427.737 10 0 59412 25200.00000 0 21599534.328 -4002185.622 12864364.873 10 0 59412 26100.00000 0 19963257.740 -3340956.419 15441904.907 10 0 59412 27000.00000 0 18127607.374 -2400555.108 17717762.056 10 0 59412 27900.00000 0 16157926.488 -1173437.401 19647610.424 10 0 59412 28800.00000 0 14121737.307 334849.932 21193953.354 10 0 59412 29700.00000 0 12085972.175 2105664.859 22326851.275 10 0 59412 30600.00000 0 10114253.772 4107827.279 23024494.230 10 0 59412 31500.00000 0 8264339.519 6298713.093 23273608.933 10 0 59412 32400.00000 0 6585837.241 8625837.909 23069694.037 10 0 59412 33300.00000 0 5118286.688 11028862.572 22417080.977 10 0 59412 34200.00000 0 3889685.263 13441935.268 21328821.343 10 0 59412 35100.00000 0 2915516.800 15796271.440 19826405.154 10 0 59412 36000.00000 0 2198320.634 18022863.495 17939317.501 10 0 59412 36900.00000 0 1727815.402 20055207.432 15704443.962 10 0 59412 37800.00000 0 1481568.717 21831933.709 13165337.749 10 0 59412 38700.00000 0 1426181.362 23299234.171 10371363.739 10 0 59412 39600.00000 0 1518933.611 24412985.846 7376736.642 10 0 59412 40500.00000 0 1709822.535 25140485.393 4239472.044 10 0 59412 41400.00000 0 1943903.543 25461724.324 1020270.321 10 0 59412 42300.00000 0 2163837.370 25370154.089 -2218645.553 10 0 59412 43200.00000 0 2312535.754 24872911.144 -5414716.880 10 0 59412 44100.00000 0 2335795.476 23990494.110 -8506239.191 10 0 59412 45000.00000 0 2184811.229 22755907.364 -11433533.712 10 0 59412 45900.00000 0 1818463.035 21213306.908 -14140079.503 10 0 59412 46800.00000 0 1205283.176 19416204.388 -16573586.139 10 0 59412 47700.00000 0 325020.793 17425302.858 -18686987.917 10 0 59412 48600.00000 0 -830261.541 15306052.634 -20439341.941 10 0 59412 49500.00000 0 -2255606.025 13126026.797 -21796614.070 10 0 59412 50400.00000 0 -3933118.654 10952223.378 -22732338.304 10 0 59412 51300.00000 0 -5832473.298 8848404.254 -23228137.275 10 0 59412 52200.00000 0 -7911943.007 6872579.664 -23274093.504 10 0 59412 53100.00000 0 -10119919.067 5074741.858 -22868963.325 10 0 59412 54000.00000 0 -12396858.203 3494941.621 -22020227.895 10 0 59412 54900.00000 0 -14677580.291 2161788.003 -20743978.239 10 0 59412 55800.00000 0 -16893823.628 1091434.759 -19064634.169 10 0 59412 56700.00000 0 -18976953.326 287097.204 -17014499.946 10 0 59412 57600.00000 0 -20860710.827 -260878.566 -14633162.682 10 0 59412 58500.00000 0 -22483889.550 -574395.214 -11966742.926 10 0 59412 59400.00000 0 -23792823.627 -686457.029 -9067010.184 10 0 59412 60300.00000 0 -24743583.448 -639543.484 -5990379.393 10 0 59412 61200.00000 0 -25303783.265 -483571.809 -2796807.663 10 0 59412 62100.00000 0 -25453922.075 -273535.364 451386.734 10 0 59412 63000.00000 0 -25188198.648 -66919.303 3690758.824 10 0 59412 63900.00000 0 -24514764.132 78994.721 6857998.649 10 0 59412 64800.00000 0 -23455400.140 109817.587 9891193.230 10 0 59412 65700.00000 0 -22044635.314 -23381.743 12731061.449 10 0 59412 66600.00000 0 -20328338.047 -361746.103 15322135.049 10 0 59412 67500.00000 0 -18361845.937 -936637.053 17613860.387 10 0 59412 68400.00000 0 -16207712.637 -1768065.507 19561597.617 10 0 59412 69300.00000 0 -13933169.204 -2863613.912 21127496.623 10 0 59412 70200.00000 0 -11607408.892 -4217896.176 22281232.199 10 0 59412 71100.00000 0 -9298811.222 -5812577.938 23000584.522 10 0 59412 72000.00000 0 -7072223.057 -7616955.498 23271854.552 10 0 59412 72900.00000 0 -4986410.911 -9589067.734 23090107.855 10 0 59412 73800.00000 0 -3091790.447 -11677292.820 22459244.040 10 0 59412 74700.00000 0 -1428526.620 -13822361.249 21391892.571 10 0 59412 75600.00000 0 -25081.288 -15959699.640 19909139.178 10 0 59412 76500.00000 0 1102734.166 -18022006.503 18040090.176 10 0 59412 77400.00000 0 1952165.233 -19941952.040 15821284.983 10 0 59412 78300.00000 0 2533366.516 -21654889.622 13295969.658 10 0 59412 79200.00000 0 2868709.665 -23101466.768 10513246.544 10 0 59412 80100.00000 0 2991579.207 -24230028.118 7527117.170 10 0 59412 81000.00000 0 2944709.386 -24998712.058 4395437.083 10 0 59412 81900.00000 0 2778133.650 -25377155.607 1178802.536 10 0 59412 82800.00000 0 2546833.818 -25347738.535 -2060609.957 10 0 59412 83700.00000 0 2308187.933 -24906316.702 -5260229.828 10 0 59412 84600.00000 0 2119323.520 -24062415.519 -8358282.809 10 0 59412 85500.00000 0 2034486.491 -22838876.421 -11294963.830 10 0 59413 0.00000 0 2102534.925 -21270971.408 -14013571.556 10 0 59413 900.00000 0 2364662.133 -19405021.777 -16461584.687 10 0 59413 1800.00000 0 2852442.403 -17296578.196 -18591660.113 10 0 59413 2700.00000 0 3586282.957 -15008235.081 -20362536.304 10 0 59413 3600.00000 0 4574345.116 -12607168.769 -21739825.026 10 0 59413 4500.00000 0 5811982.351 -10162499.026 -22696677.186 10 0 59413 5400.00000 0 7281720.026 -7742581.189 -23214310.323 10 0 59413 6300.00000 0 8953780.582 -5412339.182 -23282387.312 10 0 59413 7200.00000 0 10787135.399 -3230748.577 -22899238.080 10 0 59413 8100.00000 0 12731043.036 -1248573.199 -22071918.610 10 0 59413 9000.00000 0 14727013.187 493550.940 -20816104.071 10 0 59413 9900.00000 0 16711117.520 1966604.112 -19155815.769 10 0 59413 10800.00000 0 18616553.373 3154180.685 -17122984.640 10 0 59413 11700.00000 0 20376354.766 4052953.114 -14756857.124 10 0 59413 12600.00000 0 21926137.678 4672580.943 -12103252.720 10 0 59413 13500.00000 0 23206764.010 5035067.073 -9213685.794 10 0 59413 14400.00000 0 24166810.844 5173587.165 -6144367.526 10 0 59413 15300.00000 0 24764738.804 5130840.858 -2955107.144 10 0 59413 16200.00000 0 24970665.483 4956994.669 291865.715 10 0 59413 17100.00000 0 24767666.249 4707304.628 3533133.307 10 0 59413 18000.00000 0 24152544.895 4439521.218 6705350.676 10 0 59413 18900.00000 0 23136039.514 4211189.185 9746508.137 10 0 59413 19800.00000 0 21742453.606 4076959.753 12597168.072 10 0 59413 20700.00000 0 20008727.626 4086032.349 15201649.148 10 0 59413 21600.00000 0 17982990.668 4279837.253 17509132.540 10 0 59413 22500.00000 0 15722654.594 4690059.846 19474666.713 10 0 59413 23400.00000 0 13292132.709 5337091.845 21060049.897 10 0 59413 24300.00000 0 10760280.899 6228975.950 22234572.617 10 0 59413 25200.00000 0 8197670.532 7360888.576 22975606.088 10 0 59413 26100.00000 0 5673808.964 8715181.764 23269025.959 10 0 59413 27000.00000 0 3254424.727 10261981.276 23109464.679 10 0 59413 27900.00000 0 998930.746 11960314.074 22500389.530 10 0 59413 28800.00000 0 -1041829.475 13759716.061 21454006.877 10 0 59413 29700.00000 0 -2827460.659 15602251.060 19990996.742 10 0 59413 30600.00000 0 -4329444.030 17424855.172 18140084.850 10 0 59413 31500.00000 0 -5532058.772 19161907.577 15937462.305 10 0 59413 32400.00000 0 -6432762.053 20747920.068 13426065.593 10 0 59413 33300.00000 0 -7042015.526 22120233.340 10654731.911 10 0 59413 34200.00000 0 -7382569.105 23221608.280 7677246.859 10 0 59413 35100.00000 0 -7488235.108 24002605.507 4551303.107 10 0 59413 36000.00000 0 -7402206.510 24423655.490 1337389.915 10 0 59413 36900.00000 0 -7174991.390 24456734.632 -1902365.534 10 0 59413 37800.00000 0 -6862050.994 24086579.158 -5105383.613 10 0 59413 38700.00000 0 -6521240.562 23311387.555 -8209822.938 10 0 59413 39600.00000 0 -6210159.654 22142983.282 -11155754.665 10 0 59413 40500.00000 0 -5983522.149 20606431.343 -13886299.460 10 0 59413 41400.00000 0 -5890655.005 18739124.327 -16348706.955 10 0 59413 42300.00000 0 -5973229.489 16589374.985 -18495358.496 10 0 59413 43200.00000 0 -6263319.156 14214572.148 -20284675.421 10 0 59413 44100.00000 0 -6781865.631 11678974.398 -21681916.660 10 0 59413 45000.00000 0 -7537616.883 9051230.615 -22659851.062 10 0 59413 45900.00000 0 -8526583.663 6401727.624 -23199291.888 10 0 59413 46800.00000 0 -9732038.919 3799872.466 -23289482.961 10 0 59413 47700.00000 0 -11125062.941 1311419.976 -22928328.126 10 0 59413 48600.00000 0 -12665614.684 -1004044.971 -22122458.215 10 0 59413 49500.00000 0 -14304087.932 -3095366.863 -20887132.216 10 0 59413 50400.00000 0 -15983290.462 -4921726.611 -19245972.228 10 0 59413 51300.00000 0 -17640766.228 -6454116.269 -17230534.772 10 0 59413 52200.00000 0 -19211365.390 -7676318.666 -14879724.160 10 0 59413 53100.00000 0 -20629955.430 -8585349.331 -12239057.056 10 0 59413 54000.00000 0 -21834159.556 -9191340.599 -9359790.610 10 0 59413 54900.00000 0 -22767006.207 -9516871.283 -6297929.929 10 0 59413 55800.00000 0 -23379376.059 -9595769.137 -3113133.828 10 0 59413 56700.00000 0 -23632140.774 -9471436.382 132459.399 10 0 59413 57600.00000 0 -23497900.222 -9194769.626 3375462.108 10 0 59413 58500.00000 0 -22962241.841 -8821763.605 6552497.344 10 0 59413 59400.00000 0 -22024466.351 -8410902.457 9601461.801 10 0 59413 60300.00000 0 -20697747.211 -8020451.858 12462764.455 10 0 59413 61200.00000 0 -19008716.003 -7705769.832 15080513.916 10 0 59413 62100.00000 0 -16996491.081 -7516753.227 17403629.025 10 0 59413 63000.00000 0 -14711191.061 -7495530.703 19386849.120 10 0 59413 63900.00000 0 -12211997.140 -7674501.877 20991622.966 10 0 59413 64800.00000 0 -9564847.413 -8074806.827 22186858.558 10 0 59413 65700.00000 0 -6839861.790 -8705290.925 22949519.420 10 0 59413 66600.00000 0 -4108607.040 -9562008.196 23265056.671 10 0 59413 67500.00000 0 -1441317.491 -10628282.893 23127669.986 10 0 59413 68400.00000 0 1095812.231 -11875325.009 22540394.232 10 0 59413 69300.00000 0 3443149.905 -13263371.838 21515012.232 10 0 59413 70200.00000 0 5549860.145 -14743305.642 20071797.532 10 0 59413 71100.00000 0 7375759.817 -16258677.849 18239094.199 10 0 59413 72000.00000 0 8892720.032 -17748053.539 16052743.655 10 0 59413 72900.00000 0 10085559.873 -19147577.246 13555371.159 10 0 59413 73800.00000 0 10952398.313 -20393652.514 10795546.801 10 0 59413 74700.00000 0 11504453.303 -21425623.466 7826838.003 10 0 59413 75600.00000 0 11765299.810 -22188347.209 4706772.057 10 0 59413 76500.00000 0 11769620.692 -22634550.860 1495728.519 10 0 59413 77400.00000 0 11561504.717 -22726876.225 -1744217.611 10 0 59413 78300.00000 0 11192364.364 -22439528.306 -4950480.582 10 0 59413 79200.00000 0 10718561.119 -21759460.160 -8061154.848 10 0 59413 80100.00000 0 10198837.562 -20687045.686 -11016190.694 10 0 59413 81000.00000 0 9691663.070 -19236212.734 -13758533.560 10 0 59413 81900.00000 0 9252603.206 -17434030.755 -16235206.811 10 0 59413 82800.00000 0 8931821.739 -15319769.286 -18398318.697 10 0 59413 83700.00000 0 8771818.749 -12943464.812 -20205975.680 10 0 59413 84600.00000 0 8805498.781 -10364053.297 -21623085.813 10 0 59413 85500.00000 0 9054649.719 -7647143.382 -22622037.486 99